Paducah, KY

7:59 AM CDT on April 22, 2018 (GMT -0500)
Barkley Regional

Weather History for KPAH - October, 2011

Change the Weather History Date:

Saturday, October 15, 2011

  Actual Average Record
Temperature  
Mean Temperature 57 °F 59 °F  
Max Temperature 71 °F 71 °F 87 °F (1950)
Min Temperature 43 °F 47 °F 32 °F (1991)
Degree Days  
Heating Degree Days 8 7  
Month to date heating degree days 48 83  
Since 1 July heating degree days 84 122  
Cooling Degree Days 0 1  
Month to date cooling degree days 13 26  
Year to date cooling degree days 1696 1526  
Growing Degree Days 7 (Base 50)    
Moisture  
Dew Point 36 °F    
Average Humidity 51    
Maximum Humidity 76    
Minimum Humidity 26    
Precipitation  
Precipitation 0.00 in 0.13 in 2.41 in (1992)
Month to date precipitation 0.47 1.95  
Year to date precipitation 56.57 38.18  
Snow  
Snow 0.00 in 0.00 in 0.00 in (2002)
Month to date snowfall 0.0 0.0  
Since 1 July snowfall 0.0 0.0  
Since 1 September snowfall 0.0 0.0  
Snow Depth 0.00 in    
Sea Level Pressure  
Sea Level Pressure 30.05 in    
Wind  
Wind Speed 6 mph (WSW)    
Max Wind Speed 15 mph    
Max Gust Speed 20 mph    
Visibility 10 miles    
Events      
T = Trace of Precipitation, MM = Missing Value Source: NWS Daily Summary

Daily Weather History Graph

Daily Weather History Graph

Search for Another Location

Airport or City:

Astronomy

Oct. 15, 2011 Rise Set
Actual Time 7:02 AM CDT 6:18 PM CDT
Civil Twilight 6:36 AM CDT 6:44 PM CDT
Nautical Twilight 6:06 AM CDT 7:14 PM CDT
Astronomical Twilight 5:36 AM CDT 7:44 PM CDT
Moon 8:21 PM CDT (10/15) 10:20 AM CDT (10/15)
Length of Visible Light 12h 08m
Length of Day
11h 16m
Waning Gibbous, 89% of the Moon is Illuminated
Oct 15
Waning Gibbous
Oct 19
Last Quarter
Oct 26
New
Nov 2
First Quarter
Nov 10
Full

Hourly Weather History & Observations

Time (CDT) Temp. Windchill Dew Point Humidity Pressure Visibility Wind Dir Wind Speed Gust Speed Precip Events Conditions
12:53 AM 59.0 °F - 34.0 °F 39% 29.96 in 10.0 mi NW 9.2 mph - N/A   Clear
1:53 AM 59.0 °F - 34.0 °F 39% 29.99 in 10.0 mi WNW 5.8 mph - N/A   Clear
2:53 AM 55.0 °F - 34.0 °F 45% 30.00 in 10.0 mi WNW 3.5 mph - N/A   Clear
3:53 AM 54.0 °F - 34.0 °F 47% 29.99 in 10.0 mi NW 3.5 mph - N/A   Clear
4:53 AM 52.0 °F - 34.0 °F 50% 30.01 in 10.0 mi WSW 4.6 mph - N/A   Clear
5:53 AM 44.1 °F 40.8 °F 37.0 °F 76% 30.03 in 10.0 mi WSW 5.8 mph - N/A   Clear
6:53 AM 44.1 °F 41.5 °F 36.0 °F 73% 30.05 in 10.0 mi WSW 4.6 mph - N/A   Clear
7:53 AM 48.2 °F - 37.4 °F 66% 30.07 in 10.0 mi WSW 6.9 mph - N/A   Clear
8:53 AM 55.9 °F - 37.0 °F 49% 30.09 in 10.0 mi West 6.9 mph - N/A   Clear
9:53 AM 60.1 °F - 37.0 °F 42% 30.11 in 10.0 mi NW 8.1 mph - N/A   Clear
10:53 AM 62.6 °F - 37.4 °F 39% 30.12 in 10.0 mi NW 8.1 mph - N/A   Clear
11:53 AM 64.9 °F - 37.0 °F 36% 30.10 in 10.0 mi WNW 9.2 mph 16.1 mph N/A   Clear
12:53 PM 66.9 °F - 36.0 °F 32% 30.09 in 10.0 mi West 8.1 mph - N/A   Clear
1:53 PM 68.0 °F - 36.0 °F 31% 30.07 in 10.0 mi West 11.5 mph 16.1 mph N/A   Clear
2:53 PM 69.1 °F - 34.0 °F 27% 30.07 in 10.0 mi West 8.1 mph 16.1 mph N/A   Clear
3:53 PM 70.0 °F - 35.1 °F 28% 30.06 in 10.0 mi West 8.1 mph - N/A   Clear
4:53 PM 69.8 °F - 35.6 °F 28% 30.04 in 10.0 mi WSW 9.2 mph - N/A   Clear
5:53 PM 66.0 °F - 37.0 °F 34% 30.04 in 9.0 mi SSW 3.5 mph - N/A   Clear
6:53 PM 57.9 °F - 39.0 °F 49% 30.04 in 10.0 mi South 3.5 mph - N/A   Clear
7:53 PM 61.0 °F - 37.0 °F 41% 30.03 in 10.0 mi South 5.8 mph - N/A   Clear
8:53 PM 60.8 °F - 35.6 °F 39% 30.03 in 10.0 mi South 4.6 mph - N/A   Clear
9:53 PM 57.9 °F - 36.0 °F 44% 30.03 in 10.0 mi South 5.8 mph - N/A   Clear
10:53 PM 59.0 °F - 36.0 °F 42% 30.04 in 10.0 mi SSW 6.9 mph - N/A   Clear
11:53 PM 55.9 °F - 36.0 °F 47% 30.04 in 10.0 mi South 4.6 mph - N/A   Clear